Regional Weather Roundup
Issued by NWS Goodland, KS

Home | Current Version | Previous Version | Text Only | Print | Product List | Glossary Off
Versions: 1 2 3 4 5 6 7 8 9 10 11 12 13 14 15 16 17 18 19 20 21 22 23 24 25 26 27 28 29 30 31 32 33 34 35 36 37 38 39 40 41 42 43 44 45 46 47 48 49 50

000
ASUS43 KGLD 301208
RWRGLD

GOODLAND FORECAST AREA HOURLY WEATHER ROUNDUP
NATIONAL WEATHER SERVICE GOODLAND KS
600 AM MDT SAT APR 30 2016

...OFFICIAL OBSERVATIONS...

CITY           SKY/WX    TMP DP  RH WIND       PRES   REMARKS
GOODLAND KS    FOG       32  32 100 N15       29.78S VSB 3/4
HILL CITY KS   CLOUDY    41  40  96 NW14      29.74S FOG
IMPERIAL NEB   CLOUDY    33  32  96 N15       29.81S
MCCOOK NEB     MIX PCPN  36  34  92 N14       29.78S
AKRON CO       SNOW      30  29  96 N15       29.83S VSB 1/4 WCI  19
BURLINGTON CO  CLOUDY    32  29  88 N15       29.79F
LIMON CO       LGT SNOW  30  29  96 N16       29.82S FOG     WCI  19
$$

...UNOFFICIAL OBSERVATIONS...

CITY           SKY/WX    TMP DP  RH WIND       PRES   REMARKS
COLBY KS       CLOUDY    34  34 100 NW13G20   29.78S
GOVE KS          N/A     37  32  82 MISG        N/A
LENORA KS        N/A     39  32  76 MISG        N/A
NORTON KS      LGT RAIN  37  36  93 NW16      29.74R
SHARON SPRINGS   N/A     34  32  93 NW15        N/A
TRIBUNE KS     CLOUDY    36  34  93 NW13      29.82R
KIT CARSON CO    N/A     31  29  91 MISG        N/A
YUMA CO          N/A     32  32  99 CALM        N/A
$$




USA.gov is the U.S. government's official web portal to all federal, state and local government web resources and services.